sat.trackr.live / text

‹ back to catalog

STARLINK-31114

NORAD 58766 · 2024-011B

PAYLOAD ACTIVE UNKNOWN

§ Identity

Operator
Country
US
Launch date
2024-01-14
Launch site
AFWTR
Launch vehicle
Mass (kg)
RCS (m²)

Purposes: comms

External: N2YO · Heavens-Above · Gunter

§ Orbital elements

Epoch: 2026-05-25T00:16:27.432768Z

Period
94.11 min
Inclination
53.1616°
Eccentricity
0.0001159
Mean motion
15.30189570 rev/d
Perigee alt
474.5 km
Apogee alt
476.0 km
Semi-major
6,853.4 km
B*
2.3809e-5
RAAN
17.1935°
Arg perigee
93.0587°
Mean anomaly
267.0547°
Rev number
13,198

§ Raw data

STARLINK-311141 58766U 24011B   26145.01142862  .00000346  00000+0  23809-4 0  99902 58766  53.1616  17.1935 0001159  93.0587 267.0547 15.30189570131982

JSON: /api/v1/satellites/58766 · /tle

For live sub-satellite position, see the globe view (requires WebGL).

§ Visibility from observer

Set your observer location to see the next 7 days of passes ≥ 10°. The values pass through the URL so the page stays shareable.

No JS? Fill the form by hand. The geolocation button needs JavaScript.